Terug naar catalogus

JCSAT 10

ActiefCommunicatieGEO
NORAD 29272·PAYLOAD·🇯🇵 Japan

Gelanceerd Aug 11, 2006 vanaf Guiana Space Centre

Loading…

TLE

VersSource: Space-Track

Epoch: Sep 14, 2026, 14:24 UTC

1 29272U 06033A   26257.60049446 -.00000353  00000-0  00000-0 0  9991
2 29272   0.0425 277.3040 0002278 258.0421 162.4079  1.00271392 48634

Volg JCSAT 10 in realtime met AllMySat

Download on the App Store